www.pogodaiklimat.ru

Погода и климат >> Архив погоды >> Казахстан >> Саумалколь


ПОГОДА в Саумалколе

  • Прогноз погоды в Саумалколе
  • Монитор погоды в Саумалколе

АРХИВ ПОГОДЫ в Саумалколе

Время (UTC), дата Ветер
(напр.,м/с)
 
Видим.   Явления Облачность Т
(С)
Тd
(С)
f
(%)
Тe
(С)
Тes
(С)
Комфортность P
(гПа)
Po
(гПа)
Тmin
(С)
Tmax
(С)
R
(мм)
R24
(мм)
S
(см)
21 8.02 Ю 5 н/о позёмок 10/10 600 м
[Sc]
-19.9 -26.6 55 -30 -30 1028.5 984.6
00 9.02 Ю 6 н/о слаб. ливневой снег {метель} 10/10 600 м
[Cb cap]
-18.4 -22.5 70 -29 -29 1026.0 982.4
03 9.02 Ю 5 4000 м метель {ливн. осадки} 10/10 600 м
[Sc]
-16.5 -20.7 70 -26 -26 1024.0 980.9 29
06 9.02 Ю 3 4000 м слаб. ливневой снег {метель} 10/10 600 м
[Cb cap]
-14.4 -18.5 71 -21 -21 1023.1 980.3 -19.9 0.9
12 9.02 З 1 20 км {ливн. осадки, метель} 9/6 600 м
[Sc Ac cast]
-11.8 -16.3 69 -14 -14 1021.8 979.6
15 9.02 штиль 0 н/о ясно -18.2 -20.8 80 -18 -18 1023.7 980.3 -11.8
18 9.02 штиль 0 н/о ясно -21.6 -24.6 77 -22 -22 1025.3 981.3 -11.8 2
21 9.02 штиль 0 н/о 10/10 600 м
[Sc]
-19.9 -22.5 80 -20 -20 1025.8 982.0
00 10.02 штиль 0 н/о ясно -24.7 -27.7 76 -25 -25 1027.6 982.9
03 10.02 штиль 0 500 м переохл. туман ?/? -24.5 -27.0 80 -25 -25 1029.0 984.3 31
06 10.02 ЮЗ 1 4000 м дымка {туман} 10/0
[Ci]
-22.9 -26.4 73 -26 -24 1029.2 984.8 -24.7
09 10.02 ЮЗ 1 2000 м дымка 10/0
[Cs]
-18.2 -21.1 78 -21 -19 1028.3 984.8
12 10.02 ЮЗ 2 2000 м дымка 10/0
[Cs]
-16.7 -19.5 79 -22 -22 1027.7 984.4
15 10.02 ЮЗ 1 н/о 8/0
[Cc]
-17.4 -21.2 72 -20 -20 1027.4 983.9 -16.7
18 10.02 ЮЗ 2 н/о дымка 9/0
[Ac As]
-17.8 -21.2 75 -23 -23 1026.1 982.7 -16.7
21 10.02 ЮЗ 3 н/о слаб. ливневой снег {метель} 10/10 600 м
[Cb cap]
-17.0 -19.9 78 -24 -24 1025.4 982.1
00 11.02 ЮЗ 2 н/о позёмок {ливн. осадки} ясно -18.0 -21.2 76 -23 -23 1025.6 982.2
03 11.02 ЮЗ 3 20 км позёмок 6/3 600 м
[Sc Ac trans]
-18.3 -21.8 74 -26 -26 1026.5 983.0 32
06 11.02 З 1 4000 м слаб. ливневой снег {метель} 10/10 600 м
[Cb cap]
-16.4 -20.1 73 -19 -19 1027.5 984.3 -18.3 0.8
09 11.02 штиль 0 4000 м слаб. ливневой снег 10/10 600 м
[Cb cap]
-12.5 -16.5 72 -13 -13 1027.6 985.0
12 11.02 штиль 0 4000 м дымка {ливн. осадки} 9/5 600 м
[Sc Ac As]
-11.7 -15.7 72 -12 -12 1028.4 985.8
15 11.02 З 2 н/о слаб. ливневой снег {метель} 10/10 600 м
[Cb cap]
-12.3 -15.3 78 -17 -17 1029.9 987.2 -11.7
18 11.02 З 3 н/о слаб. ливневой снег {метель} 10/10 600 м
[Cb cap]
-11.6 -14.5 79 -18 -18 1030.6 988.0 -11.7 0.4
21 11.02 ЮЗ 2 н/о позёмок {ливн. осадки} 10/10 600 м
[Cb cap]
-10.1 -12.9 80 -15 -15 1031.1 988.7
00 12.02 штиль 0 н/о туман ?/? -10.6 -12.9 83 -11 -11 1031.8 989.3
03 12.02 штиль 0 500 м переохл. туман ?/? -11.0 -13.0 85 -11 -11 1032.5 989.9 32
06 12.02 ЮЗ 1 2000 м дымка {туман} 9/9 600 м
[Sc]
-10.1 -12.1 85 -12 -12 1033.3 990.8 -12.5 0.2
09 12.02 З 1 4000 м дымка 9/9 600 м
[Sc]
-9.3 -11.8 82 -12 -11 1033.4 991.1
12 12.02 З 6 20 км позёмок 8/8 600 м
[Sc]
-8.5 -11.8 77 -17 -17 1034.0 991.8
15 12.02 З 5 н/о позёмок 8/4 600 м
[Sc Ac trans]
-10.9 -14.6 74 -19 -19 1035.5 992.8 -8.5
18 12.02 З 4 н/о позёмок 4/4 600 м
[Sc]
-12.5 -15.7 77 -20 -20 1036.9 993.9 -8.5
21 12.02 ЮЗ 3 н/о позёмок 10/10 600 м
[Sc]
-13.0 -15.9 79 -19 -19 1038.6 995.4
00 13.02 З 5 н/о позёмок 10/10 600 м
[Sc]
-13.0 -16.2 77 -21 -21 1037.5 994.4
03 13.02 штиль 0 200 м переохл. туман ?/? -12.0 -15.1 78 -12 -12 1038.5 995.6 33
06 13.02 штиль 0 2000 м дымка {туман} 10/0
[Ac As]
-10.2 -13.0 80 -11 -9 1038.3 995.6 -13.0
09 13.02 ЮЗ 1 4000 м дымка 10/0
[Ac As]
-9.6 -13.2 75 -12 -11 1038.4 995.8
12 13.02 штиль 0 20 км ясно -9.5 -14.1 69 -10 -10 1037.7 995.1
15 13.02 ЮЗ 2 н/о дымка ясно -14.0 -17.3 76 -19 -19 1039.4 996.0 -9.3
18 13.02 штиль 0 н/о дымка ясно -16.0 -18.7 80 -16 -16 1038.4 994.7 -9.3
21 13.02 штиль 0 н/о ясно -16.8 -19.9 77 -17 -17 1038.5 994.7
00 14.02 штиль 0 н/о ясно -17.1 -20.2 77 -17 -17 1037.4 993.6
03 14.02 штиль 0 20 км ясно -17.2 -20.3 77 -17 -17 1036.6 992.9 31
06 14.02 штиль 0 20 км 3/0
[Ci fib]
-10.9 -14.8 73 -11 -7 1035.2 992.5 -17.2
09 14.02 ЮЗ 3 20 км 5/0
[Ci fib]
-5.3 -13.9 51 -10 -8 1032.9 991.2
12 14.02 ЮЗ 1 20 км 4/0
[Ci fib]
-6.1 -13.5 56 -8 -8 1032.0 990.2
15 14.02 Ю 1 н/о ясно -10.2 -16.3 61 -12 -12 1032.3 989.9 -4.4
18 14.02 Ю 2 н/о ясно -11.0 -16.1 66 -15 -15 1029.3 986.9 -4.4
00 15.02 ЮЗ 3 н/о ясно -12.8 -17.5 68 -19 -19 1025.4 982.9
03 15.02 Ю 1 20 км 3/3 600 м
[Sc]
-13.4 -19.5 60 -16 -16 1023.4 980.8 31
06 15.02 Ю 7 20 км позёмок 6/0
[Ac cast Ci]
-11.5 -18.7 55 -21 -20 1021.7 979.5 -14.3
12 15.02 ЮЗ 6 20 км позёмок ясно -9.9 -18.4 50 -18 -18 1018.5 976.7
18 15.02 ЮЗ 7 н/о позёмок 10/10 600 м
[Sc]
-13.0 -16.7 74 -23 -23 1017.9 975.6 -8.9

 

Местоположение метеостанции Саумалколь (Северо-Казахстанская область, Казахстан): широта 53.32 долгота 68.10 высота над уровнем моря 319 м.

В архиве по умолчанию представлена погода в Саумалколе за последнюю неделю. Архивные данные за месяц целиком и за предыдущие месяцы, начиная с января 2011 года, Вы можете получить, выбрав интересующий диапазон дат из раскрывающегося списка и нажав кнопку "Ввод!".


*Определитесь, кто Вы:
робот инопланетянин человек

Внимание! Время в таблицах - всемирное. Для получения местного времени необходимо прибавить поправку, которая равна 5 ч.

Смотрите также архив погоды в соседних городах и на ближайших метеорологических станциях:

Погода в Еленовке (Акмолинская область, Казахстан) (53 км)
Погода в Сергеевке (Северо-Казахстанская область, Казахстан) (77 км)
Погода в Приозерном (Акмолинская область, Казахстан) (83 км)
Погода в Зеренде (Акмолинская область, Казахстан) (84 км)
Погода в Кокшетау (Акмолинская область, Казахстан) (85 км)
Погода в Рузаевке (Северо-Казахстанская область, Казахстан) (94 км)
Погода в Балкашино (Акмолинская область, Казахстан) (98 км)
Погода в Тимирязево (Северо-Казахстанская область, Казахстан) (117 км)
Погода в Тайынше (Северо-Казахстанская область, Казахстан) (125 км)
Погода в Благовещенке (Северо-Казахстанская область, Казахстан) (138 км)

Пояснения к столбцам:

Ветер - указаны скорость ветра в м/с - средняя за 10 мин, порывы в срок и между сроками (в фигурных скобках) и направление, откуда дует ветер: С - северный, СВ - северо-восточный, В - восточный, ЮВ - юго-восточный, Ю - южный, ЮЗ - юго-западный, З - западный, СЗ - северо-западный.
Видимость - горизонтальная дальность видимости в метрах или километрах. При видимости от 1 до 10 км при отсутствии осадков обычно наблюдается дымка, при ухудшении видимости до 1 км и менее - туман. В сухую погоду видимость может ухудшаться дымом, пылью или мглою.
Явления - указаны атмосферные явления, наблюдавшиеся в срок или в последний час перед сроком; фигурными скобками обозначены явления, наблюдавшиеся между сроками (за 1-3 часа до срока); квадратными скобками обозначены град или гололедные отложения с указанием их диаметра в мм.
Облачность - указаны через наклонную черту общая и нижняя облачность в баллах и высота нижней границы облаков в метрах; квадратными скобками обозначены формы облаков: Ci - перистые, Cs - перисто-слоистые, Cc - перисто-кучевые, Ac - высококучевые, As - высокослоистые, Sc - слоисто-кучевые, Ns - слоисто-дождевые, Cu - кучевые, Cb - кучево-дождевые. Подробнее классификацию облаков см. в Атласе облаков (PDF).
T - Температура воздуха - температура, измеренная на высоте 2 м над землей.
Td - Температура точки росы - температура, при понижении до которой содержащийся в воздухе водяной пар достигнет насыщения.
f - Относительная влажность воздуха - влажноcть воздуха, измеренная на высоте 2 м над землей.
Te - Эффективная температура - температура, которую ощущает одетый по сезону человек в тени. Характеристика душности погоды. При расчете учитывается влияние влажности воздуха и скорости ветра на теплоощущения человека.
Tes - Эффективная температура на солнце - температура, которую ощущает человек, с поправкой на солнечный нагрев. Характеристика знойности погоды. Зависит от высоты солнца над горизонтом, облачности и скорости ветра. Ночью, в пасмурную погоду, а также при ветре 12 м/с и более поправка равна нулю.
P - Атмосферное давление - приведенное к уровню моря атмосферное давление.
Po - Атмосферное давление - измеренное на уровне метеостанции атмосферное давление.
Tmin - Минимальная температура - минимум температуры воздуха на высоте 2 м над землей.
Tmax - Максимальная температура - максимум температуры воздуха на высоте 2 м над землей.
R - Количество осадков - Количество выпавших осадков за период времени, мм. При наведении курсора мыши на число - период времени, за который выпало указанное количество осадков.
R24 - Количество осадков - Количество выпавших осадков за 24 часа, мм.
S - Снежный покров - Высота снежного покрова, см. При наведении курсора мыши на число - состояние снежного покрова и степень покрытия местности в баллах.